Погода Нагорный

Хотите узнать прогноз погоды Нагорный? Тогда Вам сюда: Погода Нагорный

Поиск расширенной информации на нашем сайте:

Полезная информация:

Новости сайта



02.01.2020
Опубликован Долгосрочный прогноз погоды по городам России и ближнего зарубежья на январь 2020 года.
Карты: Прогноз на январь и февраль 2020 года, Сравнение прогнозируемой аномалии приземной температуры воздуха на январь 2020 года по разным моделям.




Погода Нагорный - сегодня

Время (UTC), дата Ветер
(°,м/с) 
Видим.   Явления Облачность Т
(°С)
Тd
(°С)
f(%) Тe
(°С)
Pmin
(гПа)
dP
(гПа)
Po
(мм)
O2
(г/м3)
Тmin Tmax R s Состояние
почвы
06 27.10.20 020 (С) 5-10{15}  20000 м  слаб. ливневой снег  10/10 600 м кучево-дожд. 
[Cb cap]
-7.8 -10.9 78 -12  1020.7  -0.1  686  285           
09 27.10.20 010 (С) 5-10{15}  20000 м  слаб. ливневой снег  10/10 600 м кучево-дожд. 
[Cb cap]
-8.7 -11.6 79 -13  1021.6  0.4  686  287           
12 27.10.20 360 (С) 5-10{15}  20000 м  позёмок{ливн. осадки}  10/8 600 м кучево-дожд., средняя 
[Cb cap|Ac trans]
-9.2 -12.7 76 -14  1022.4  0.5  687  287    -6.3     
15 27.10.20 010 (С) 4{13}  10 км  слаб. ливневой снег  10/10 600 м кучево-дожд. 
[Cb cap]
-9.8 -12.4 81 -14  1026.1  0.4  687  288           
18 27.10.20 360 (С) 20000 м  слаб. ливневой снег  10/10 600 м кучево-дожд. 
[Cb cap]
-10.6 -13.4 80 -14  1023.9  0.4  687  289           
21 27.10.20 020 (С) 20000 м  слаб. ливневой снег  10/10 600 м кучево-дожд. 
[Cb cap]
-10.8 -12.8 85 -14  1024.3  0.3  688  289           
00 28.10.20 040 (СВ) 20000 м  {ливн. осадки}  6/3 600 м средняя, верхняя 
[Sc|Ac lent|Cc]
-11.2 -14 80 -14  1025.4  0.8  688  290  -11.6    0.5  неравномерный
сухой снег
100% 
03 28.10.20 020 (С) 10 км  слаб. ливневой снег  9/9 600 м кучево-дожд. 
[Cb cap]
-10.1 -13.7 75 -14  1025.5  0.6  689  289           
06 28.10.20 020 (С) 20000 м  {ливн. осадки}  8/5 600 м средняя, верхняя 
[Sc diur, vesp|Ac lent|Ci sp]
-8.7 -13.6 68 -12  1025.1  0.2  689  288           
09 28.10.20 020 (С) 20000 м    10/10 600 м 
[Sc]
-10.2 -13.8 75 -14  1027.4  1.5  690  290           
12 28.10.20 020 (С) 20000 м    10/10 600 м 
[Sc]
-10.8 -14.4 75 -13  1028.7  0.9  691  291    -8.7  0.7     
15 28.10.20 010 (С) 20000 м  слаб. ливневой снег  10/10 600 м кучево-дожд. 
[Cb cap]
-10.9 -14.5 75 -13  1029.3  0.7  691  291           
18 28.10.20 020 (С) 20000 м  {ливн. осадки}  9/9 600 м 
[Sc]
-11.5 -14.3 80 -11  1030.2  0.5  691  292           
21 28.10.20 020 (С) 20000 м    ясно 
-14.1 -16.8 80 -14  1031.5  0.2  692  295           
00 29.10.20 250 (З) 20000 м    ясно 
-19.5 -22.1 80 -20  1034.9  0.7  692  302  -19.8    0.2  неравномерный
сухой снег
100% 
03 29.10.20 110 (В) 20000 м    ясно 
-8.8 -14.2 65 -9  1029.5  -0.5  692  289           
06 29.10.20 100 (В) 20000 м    ясно 
-6.6 -13.2 59 -6  1028.1  -0.4  691  287           
09 29.10.20 тихо ()   20000 м    10/0 средняя, верхняя 
[Ac lent|Cs]
-11.2 -14.8 75 -11  1029.4  -0.6  691  291           
12 29.10.20 250 (З) 20000 м    10/0 средняя 
[As trans]
-13.1 -15.8 80 -13  1029.7  -0.5  691  293    -6.4       
15 29.10.20 250 (З) 20000 м    10/8 600 м средняя 
[Sc|Ac As]
-9.4 -12.9 76 -11  1026.4  -1.5  689  289           
18 29.10.20 250 (З) 4000 м  ливневой снег  10/10 600 м кучево-дожд. 
[Cb cap]
-8.3 -11.1 80 -8  1024.3  -1.4  688  287           
21 29.10.20 260 (З) 20000 м  {ливн. осадки}  10/4 600 м средняя, верхняя 
[Sc|Ac lent|Ci fib]
-11.2 -13.2 85 -13  1025  -0.5  688  290           
00 30.10.20 240 (ЮЗ) 20000 м  {ливн. осадки}  10/10 600 м 
[Sc]
-8.3 -11.5 78 -8  1023.7  688  287  -11.2    0.4  неравномерный
сухой снег
100% 
03 30.10.20 290 (З) 20000 м    9/3 600 м средняя 
[Sc|Ac trans]
-5.3 -9.4 73 -5  1022.1  -0.4  688  283           
06 30.10.20 100 (В) 20000 м    6/3 600 м средняя, верхняя 
[Sc|Ac trans|Ci sp]
-4.2 -9.2 68 -4  1020.7  -0.8  687  282           
Время (UTC), дата Ветер
(°,м/с) 
Видим.   Явления Облачность Т
(°С)
Тd
(°С)
f(%) Тe
(°С)
Pmin
(гПа)
dP
(гПа)
Po
(мм)
O2
(г/м3)
Тmin Tmax R s Состояние
почвы

Для получения пояснительной информации подведите курсор к названию столбца.

ПОГОДА Нагорный - архив

Всё, что Вы хотите узнать о погоде Нагорный - удобно и подробно!

Выберите нужную дату (начиная с 1 января 2019* года) и нажмите кнопку "Найти".
Будут отображены архивные сводки погоды по пункту Нагорный, начиная с указанной даты.


Отображать данные в формате CSV (для использования в таблицах Excel)


Внимание! Наш архив погоды предназначен исключительно для личного некоммерческого использования в познавательных целях. Если Вам необходимы официальные справки о состоянии погоды (для производственных, юридических, коммерческих и т.п. целей), обращайтесь в органы Росгидромета.

*Примечание: данная дата относится к архиву по метеостанциям СССР (Россия, СНГ, Балтия).
Архив по метеостанциям Зарубежной Европы и Азии (кроме Китая) хранится 10 дней, по другим регионам земного шара (Китай, Африка, Америка, Австралия, Океания) - 1 день.

Нагорный - район местоположения метеостанции


Название, широта, долгота, высота метеостанции:
Нагорный 56°ш. 124.9°д. 861 м над ур. моря [Российская Федерация]

Дополнительная информация

В oтличие oт бoльшинства пoгoдных сайтoв мы публикуем пoдрoбную метеoинфoрмацию в детальнoм прoфессиoнальнoм фoрмате.

Характеристики температуры и влажнoсти вoздуха измеряются на высoте 2 м в тени вдали oт зданий и деревьев.
Скoрoсть ветра измеряется на высoте 10 м (на урoвне рoста челoвека скoрoсть ветра ниже в 1.5-2 раза). Если метеoстанция нахoдится в гoрoде или в лесу, тo скoрoсть ветра занижена на 2-4 м/с пo сравнению с oткрытым местoм. Скoрoсть ветра над акватoриями крупных рек и oзёр, а также на вершинах хoлмoв на 2-5 м/с выше, чем в oбычных услoвиях.
Атмoсфернoе давление в разных тoчках местнoсти мoжет значительнo oтличаться oт давления на метеoстанции, в зависимoсти oт услoвий рельефа (при пoдъёме на 10 м давление пoнижается примернo на 1 мм рт.ст.).